Miles City, MT

4:20 PM MST on December 18, 2017 (GMT -0700)
Wiley

Weather History for KMLS - November, 2013

Change the Weather History Date:

Tuesday, November 19, 2013

  Actual Average Record
Temperature  
Mean Temperature 41 °F 30 °F  
Max Temperature 57 °F 41 °F 72 °F (2003)
Min Temperature 24 °F 19 °F -9 °F (1985)
Degree Days  
Heating Degree Days 24 35  
Month to date heating degree days 547 571  
Since 1 July heating degree days 1252 1382  
Cooling Degree Days 0 0  
Month to date cooling degree days 0 0  
Year to date cooling degree days 877 730  
Moisture  
Dew Point 28 °F    
Average Humidity 62    
Maximum Humidity 85    
Minimum Humidity 38    
Precipitation  
Precipitation 0.00 in 0.01 in 0.34 in (1977)
Month to date precipitation 0.08 0.28  
Year to date precipitation 16.48 12.04  
Sea Level Pressure  
Sea Level Pressure 29.65 in    
Wind  
Wind Speed 9 mph (South)    
Max Wind Speed 24 mph    
Max Gust Speed 28 mph    
Visibility 10 miles    
Events      
T = Trace of Precipitation, MM = Missing Value Source: NWS Daily Summary

Daily Weather History Graph

Daily Weather History Graph

Search for Another Location

Airport or City:

Trip Planner

Search our weather history database for the weather conditions in past years. The results will help you decide how hot, cold, wet, or windy it might be!

Date:

Astronomy

Nov. 19, 2013 Rise Set
Actual Time 7:11 AM MST 4:26 PM MST
Civil Twilight 6:38 AM MST 4:59 PM MST
Nautical Twilight 6:01 AM MST 5:36 PM MST
Astronomical Twilight 5:25 AM MST 6:12 PM MST
Moon 6:18 PM MST (11/19) 8:53 AM MST (11/19)
Length of Visible Light 10h 21m
Length of Day
9h 15m
Waning Gibbous, 96% of the Moon is Illuminated
Nov 19
Waning Gibbous
Nov 25
Last Quarter
Dec 2
New
Dec 9
First Quarter
Dec 17
Full

Hourly Weather History & Observations

Time (MST) Temp. Windchill Dew Point Humidity Pressure Visibility Wind Dir Wind Speed Gust Speed Precip Events Conditions
12:53 AM 30.9 °F 22.8 °F 26.1 °F 82% 29.75 in 10.0 mi SSE 9.2 mph - N/A   Clear
1:53 AM 35.1 °F 27.9 °F 27.0 °F 72% 29.72 in 10.0 mi SSE 9.2 mph - N/A   Clear
2:53 AM 32.0 °F 26.4 °F 27.0 °F 82% 29.70 in 10.0 mi SSE 5.8 mph - N/A   Clear
3:53 AM 30.0 °F - 26.1 °F 85% 29.70 in 10.0 mi Calm Calm - N/A   Clear
4:53 AM 32.0 °F 23.6 °F 27.0 °F 82% 29.68 in 10.0 mi SSE 10.4 mph - N/A   Clear
5:53 AM 33.1 °F 27.7 °F 27.0 °F 78% 29.65 in 10.0 mi SSE 5.8 mph - N/A   Clear
6:53 AM 30.9 °F 23.5 °F 27.0 °F 85% 29.65 in 10.0 mi SSE 8.1 mph - N/A   Clear
7:53 AM 33.1 °F 26.1 °F 28.0 °F 82% 29.65 in 10.0 mi SSE 8.1 mph - N/A   Partly Cloudy
8:53 AM 35.1 °F 27.9 °F 28.9 °F 78% 29.64 in 10.0 mi SSE 9.2 mph - N/A   Clear
9:53 AM 39.0 °F 34.0 °F 30.0 °F 70% 29.63 in 10.0 mi SSE 6.9 mph - N/A   Partly Cloudy
10:53 AM 43.0 °F 40.3 °F 30.0 °F 60% 29.61 in 10.0 mi SSW 4.6 mph - N/A   Clear
11:53 AM 46.0 °F 41.4 °F 30.9 °F 56% 29.59 in 10.0 mi South 9.2 mph - N/A   Clear
12:53 PM 51.1 °F - 30.9 °F 46% 29.57 in 10.0 mi SW 10.4 mph - N/A   Clear
1:53 PM 55.0 °F - 32.0 °F 42% 29.55 in 10.0 mi WSW 8.1 mph - N/A   Clear
2:53 PM 55.0 °F - 30.9 °F 40% 29.55 in 10.0 mi WSW 6.9 mph - N/A   Clear
3:53 PM 50.0 °F - 30.9 °F 48% 29.57 in 10.0 mi SSE 8.1 mph - N/A   Clear
4:53 PM 44.1 °F 39.0 °F 32.0 °F 63% 29.58 in 10.0 mi SSE 9.2 mph - N/A   Clear
5:53 PM 42.1 °F 37.1 °F 30.9 °F 65% 29.59 in 10.0 mi SSE 8.1 mph - N/A   Clear
6:53 PM 41.0 °F 35.2 °F 30.9 °F 67% 29.60 in 10.0 mi SSE 9.2 mph - N/A   Clear
7:53 PM 39.9 °F 35.1 °F 30.9 °F 70% 29.60 in 10.0 mi SSE 6.9 mph - N/A   Clear
8:53 PM 39.0 °F 32.8 °F 30.0 °F 70% 29.64 in 10.0 mi WNW 9.2 mph 19.6 mph N/A   Clear
9:53 PM 32.0 °F 20.1 °F 26.1 °F 79% 29.70 in 10.0 mi NNW 19.6 mph - N/A   Clear
10:53 PM 28.0 °F 14.9 °F 23.0 °F 81% 29.76 in 10.0 mi North 19.6 mph - N/A   Clear
11:53 PM 24.1 °F 12.0 °F 19.9 °F 84% 29.81 in 10.0 mi North 13.8 mph - N/A   Clear